Weather Roundup
Issued by NWS

Home | Current Version | Previous Version | Graphics & Text | Print | Product List | Glossary Off
Versions: 1 2 3 4 5 6 7 8 9 10 11 12 13 14 15 16 17 18 19 20 21 22 23 24 25 26 27 28 29 30 31 32 33 34 35 36 37 38 39 40 41 42 43 44 45 46 47 48 49 50

000
NZUS93 KARX 250259
HRRWXR

CURRENT HOURLY OBSERVATIONS ACROSS
MUCH OF THE UPPER MISSISSIPPI VALLEY
NATIONAL WEATHER SERVICE LA CROSSE WI
1000 PM CDT MON JUL 24 2017


...SOUTHEAST MINNESOTA...


CITY           SKY/WX    TMP DP  RH WIND       PRES   REMARKS
ROCHESTER      CLEAR     61  59  93 SE8       30.07F
ROCHESTER/MAYO FAIR      67  59  76 SE7       30.07F
WINONA         CLEAR     64  59  82 CALM      30.07S
AUSTIN         CLEAR     64  61  88 SE5       30.06S
ALBERT LEA     CLEAR     68  63  83 SE8       30.06R
DODGE CENTER   CLEAR     63  59  88 SE6       30.07S
PRESTON        CLEAR     65  59  82 CALM      30.09S
OWATONNA       CLEAR     66  61  82 SE9       30.05R
FARIBAULT      CLEAR     68  63  83 SE8       30.05S
$$

...ELSEWHERE IN MINNESOTA...


CITY           SKY/WX    TMP DP  RH WIND       PRES   REMARKS
MINNEAPOLIS    MOCLDY    71  59  65 SE12      30.03S
INTNL FALLS    CLEAR     65  56  72 SE5       29.97S
DULUTH         CLOUDY    59  53  80 E6        30.04F
RED WING       CLOUDY    70  57  64 SE8       30.05R
REDWOOD FALLS  CLOUDY    70  62  76 SE8       29.98R
MANKATO        CLEAR     68  63  84 SE10      30.02S
WORTHINGTON    CLEAR     69  63  81 SE7       30.00R
FAIRMONT       CLEAR     68  64  87 SE8       30.02R
$$

...SOUTHWEST WISCONSIN...


CITY           SKY/WX    TMP DP  RH WIND       PRES   REMARKS
LA CROSSE      CLOUDY    70  60  70 E5        30.07S
PRAIRIE DU CHI CLEAR     65  60  84 E3        30.08R
BOSCOBEL       CLEAR     63  60  90 CALM      30.10R
LONE ROCK      NOT AVBL
PLATTEVILLE    CLEAR     67  63  85 E5        30.09R
FORT MC COY    PTCLDY    60  59  95 CALM      30.10R
MAUSTON-NEW LI CLOUDY    62  60  95 CALM      30.10R
VIROQUA        FAIR      63  61  94 CALM      30.11R
WIS DELLS      CLEAR     62  56  81 CALM      30.10R
$$

...ELSEWHERE IN WISCONSIN...


CITY           SKY/WX    TMP DP  RH WIND       PRES   REMARKS
MILWAUKEE      PTCLDY    64  56  75 NE7       30.11R
MADISON        PTCLDY    62  57  83 CALM      30.10R
GREEN BAY      CLEAR     62  56  80 SE3       30.12R
EAU CLAIRE     NOT AVBL
BLACK RVR FLS  FAIR      58  58 100 CALM      30.08S
MEDFORD        CLOUDY    60  56  87 CALM      30.11R
WAUSAU         CLEAR     65  54  67 SE7       30.11R
WIS RAPIDS     CLEAR     63  56  78 SE5       30.12R
MARSHFIELD     CLEAR     62  56  80 CALM      30.11R
RICE LAKE      MOCLDY    63  58  85 SE3       30.08F
$$

...NORTHEAST IOWA...


CITY           SKY/WX    TMP DP  RH WIND       PRES   REMARKS
WATERLOO       CLEAR     65  61  87 E6        30.05R
DUBUQUE        CLEAR     65  60  84 E6        30.10R
DECORAH        PTCLDY    64  61  88 SE6       30.08S
MASON CITY     CLEAR     68  63  84 SE10      30.05F
CHARLES CITY   CLEAR     64  64 100 E5        30.07S
OELWEIN          N/A    N/A N/A N/A MISG        N/A
$$

...ELSEWHERE IN IOWA...


CITY           SKY/WX    TMP DP  RH WIND       PRES   REMARKS
DES MOINES     CLEAR     76  63  64 E9        30.00R
IOWA CITY      CLEAR     71  63  75 E5        30.07R
FORT DODGE     CLEAR     70  61  73 E8        30.03R
MARSHALLTOWN   CLEAR     67  64  90 E7        30.04R
CEDAR RAPIDS   CLEAR     65  64  97 E6        30.06R
$$

...NORTHERN ILLINOIS...


CITY           SKY/WX    TMP DP  RH WIND       PRES   REMARKS
CHICAGO-OHARE  MOCLDY    68  59  73 NE7       30.11R
CHICAGO-MIDWAY PTCLDY    69  58  67 NE8       30.10R
MOLINE         CLEAR     67  62  84 CALM      30.07R
ROCKFORD       CLEAR     67  59  75 E6        30.10S
PEORIA         CLEAR     70  64  81 E6        30.07R
$$

NOTE: "FAIR" INDICATES FEW OR NO CLOUDS BELOW 12,000 FEET WITH NO
SIGNIFICANT WEATHER AND/OR OBSTRUCTIONS TO VISIBILITY. WIND
SPEEDS ARE IN MILES-PER-HOUR.




USA.gov is the U.S. government's official web portal to all federal, state and local government web resources and services.